Location: Plainartige
(45.6866°N, 1.7993°E)
Time: 11:28:36
(UTC+00:00)

Gurwin Techsat 1B - Pass Details

Date: 01 July 2022
Orbit: 812 x 813 km, 98.8° (Epoch: 09 August)

Event Time Altitude Azimuth Distance (km) Brightness Sun altitude
Rises 02:00:07 0° 19° (NNE) 3,346 13.5 -15.7°
Reaches altitude 10° 02:02:34 10° 26° (NNE) 2,409 12.5 -15.5°
Maximum altitude 02:07:40 45° 99° (E) 1,092 9.4 -15.0°
Enters shadow 02:12:18 12° 170° (S) 2,232 10.5 -14.6°
